Home > Weather > Rockhampton > Past weeks

Flag for Australia Past Weather in Rockhampton, Queensland, Australia — Yesterday and Last 2 Weeks

Now
54 °F

Low clouds.


Feels Like: 54 °F
Forecast: 52 / 76 °F
Wind: No wind

Location: Rockhampton Airport

Current Time: Jul 1, 2016 at 5:27:09 AM

Latest Report: Jul 1, 2016 at 5:00 AM


Visibility: 0 mi

Pressure: 30.09 "Hg

Humidity: 94%

Dew Point: 52 °F

Location of RockhamptonLocation

Past Weather in Rockhampton — Graph

°F

Rockhampton Temperature Yesterday

Maximum temperature yesterday: 73 °F (at 2:00 PM)
Minimum temperature yesterday: 46 °F (at 3:00 AM)
Average temperature yesterday: 61 °F

High & Low Weather Summary for the Past Weeks

 TemperatureHumidityPressure
High82 °F (Jun 24, 12:30 PM)100% (Jun 19, 10:00 AM)30.30 "Hg (Jun 19, 10:00 AM)
Low41 °F (Jun 29, 7:00 AM)21% (Jun 22, 4:00 PM)29.83 "Hg (Jun 19, 3:00 PM)
Average63 °F72%30.03 "Hg
* Reported Jun 16 4:00 AM — Jul 1 4:00 AM, Rockhampton, Weather by CustomWeather, © 2016

Note: Actual official high and low records may vary slightly from our data, if they occured in-between our weather recording intervals... More about our weather records

Advertising

Rockhampton Weather History for the Previous 24 Hours

Scroll right to see more
 ConditionsComfort  
Time TempWeatherWind HumidityBarometerVisibility
4:00 AM
Fri, Jul 1
52 °FPartly cloudy.No wind100%30.09 "HgN/A
3:00 AM54 °FPassing clouds.No wind94%30.09 "Hg1 mi
2:30 AM54 °FPassing clouds.5 mph100%30.09 "Hg1 mi
2:00 AM54 °FClear.5 mph100%30.09 "HgN/A
1:30 AM57 °FClear.1 mph100%30.12 "HgN/A
1:00 AM55 °FClear.3 mph100%30.12 "HgN/A
12:00 AM55 °FClear.No wind100%30.12 "HgN/A
11:30 PM
Thu, Jun 30
57 °FClear.3 mph94%30.12 "HgN/A
11:00 PM57 °FClear.2 mph94%30.12 "HgN/A
10:30 PM61 °FPassing clouds.No wind88%30.12 "HgN/A
10:00 PM61 °FPassing clouds.No wind88%30.15 "HgN/A
9:30 PM61 °FPassing clouds.3 mph88%30.15 "HgN/A
9:00 PM63 °FPassing clouds.3 mph83%30.15 "HgN/A
8:00 PM63 °FPartly cloudy.2 mph83%30.15 "HgN/A
7:30 PM64 °FPassing clouds.No wind83%30.12 "HgN/A
7:00 PM64 °FClear.3 mph83%30.12 "HgN/A
6:30 PM64 °FPassing clouds.5 mph83%30.12 "HgN/A
6:00 PM64 °FPassing clouds.6 mph78%30.12 "HgN/A
5:30 PM66 °FPassing clouds.6 mph73%30.09 "HgN/A
5:00 PM70 °FPassing clouds.5 mph64%30.09 "HgN/A
4:30 PM73 °FPassing clouds.5 mph57%30.09 "HgN/A
4:00 PM72 °FPassing clouds.6 mph61%30.09 "HgN/A
3:30 PM73 °FPassing clouds.5 mph57%30.09 "HgN/A
3:00 PM72 °FScattered clouds.7 mph57%30.09 "HgN/A
2:30 PM72 °FPartly sunny.6 mph61%30.09 "HgN/A
2:00 PM73 °FBroken clouds.6 mph53%30.09 "HgN/A
1:00 PM72 °FScattered clouds.5 mph57%30.12 "HgN/A
12:30 PM72 °FScattered clouds.8 mph57%30.15 "HgN/A
12:00 PM72 °FScattered clouds.9 mph57%30.15 "HgN/A
11:30 AM70 °FSunny.10 mph60%30.18 "Hg10 mi
11:00 AM68 °FSunny.9 mph60%30.18 "Hg10 mi
10:30 AM68 °FSunny.8 mph60%30.18 "Hg10 mi
10:00 AM64 °FSunny.8 mph64%30.21 "Hg10 mi
9:00 AM59 °FPartly sunny.5 mph77%30.21 "HgN/A
8:30 AM55 °FSunny.6 mph88%30.21 "Hg10 mi
8:00 AM54 °FSunny.7 mph88%30.21 "Hg10 mi
7:00 AM48 °FOvercast.6 mph100%30.18 "HgN/A
6:00 AM48 °FPartly sunny.5 mph94%30.18 "HgN/A
5:30 AM46 °FClear.3 mph93%30.18 "HgN/A
5:00 AM46 °FClear.3 mph100%30.18 "HgN/A
Weather by CustomWeather, © 2016

See weather overviewHow to use our weather pages